Location: Bois de la Silve
(44.4667°N, 6.7833°E)
Time: 10:26:51
(UTC+00:00)

SL-16 R/B - Pass Details

Date: 14 July 2020
Orbit: 985 x 1006 km, 99.5° (Epoch: 05 August)

Event Time Altitude Azimuth Distance (km) Brightness Sun altitude
Exits shadow 00:11:55 14° 123° (ESE) 2,481 4.4 -23.5°
Maximum altitude 00:16:37 36° 63° (ENE) 1,545 3.8 -23.3°
Drops below altitude 10° 00:22:14 10° 0° (N) 2,792 6.0 -23.2°
Sets 00:24:54 0° 352° (N) 3,747 6.8 -23.1°
